Location: Vancouver
(49.2500°N, 123.1330°W)
Time: 14:24:18
(UTC-07:00)

Oscar 11 - Visible Passes

Search period start: 17 April 2014 00:00
Search period end: 27 April 2014 00:00
Orbit: 618 x 631 km, 97.9° (Epoch: 16 April)

Date Brightness Start Highest point End Pass type
(mag) Time Alt. Az. Time Alt. Az. Time Alt. Az.
17 Apr 7.1 21:50:13 26° SE 21:52:32 63° ENE 21:56:50 10° N visible
17 Apr 9.4 23:27:28 13° WSW 23:29:11 16° W 23:31:49 10° NW visible
18 Apr 7.0 22:09:00 29° SSE 22:11:11 86° WSW 22:15:33 10° NNW visible
18 Apr 9.8 23:47:36 10° W 23:48:05 10° W 23:48:34 10° W visible
19 Apr 8.7 20:51:00 10° ESE 20:54:03 19° ENE 20:57:07 10° NNE visible
19 Apr 7.5 22:27:47 28° SSW 22:29:53 56° W 22:34:09 10° NNW visible
20 Apr 8.2 21:09:18 12° ESE 21:12:32 27° ENE 21:16:11 10° N visible
20 Apr 8.3 22:46:33 23° SSW 22:48:37 37° W 22:52:39 10° NNW visible
21 Apr 7.7 21:28:05 16° SE 21:31:04 39° ENE 21:35:07 10° N visible
21 Apr 8.9 23:05:20 18° SW 23:07:24 25° W 23:10:59 10° NW visible
22 Apr 7.2 21:46:51 21° SE 21:49:39 59° ENE 21:53:55 10° N visible
22 Apr 9.4 23:24:06 12° WSW 23:26:15 17° W 23:29:03 10° NW visible
23 Apr 7.0 22:05:38 23° SSE 22:08:16 89° ENE 22:12:38 10° NNW visible
23 Apr 9.8 23:43:58 10° WSW 23:45:08 11° W 23:46:19 10° WNW visible
24 Apr 8.8 20:48:13 10° ESE 20:51:09 18° ENE 20:54:07 10° NNE visible
24 Apr 7.5 22:24:24 23° S 22:26:57 60° W 22:31:15 10° NNW visible
25 Apr 8.3 21:06:04 10° ESE 21:09:38 26° ENE 21:13:13 10° N visible
25 Apr 8.2 22:43:10 20° SSW 22:45:40 39° W 22:49:46 10° NNW visible
26 Apr 7.8 21:24:41 13° SE 21:28:08 37° ENE 21:32:09 10° N visible
26 Apr 8.8 23:01:56 16° SW 23:04:26 26° W 23:08:07 10° NW visible
